Location: Gu�tanj
(46.5431°N, 14.9692°E)
Time: 14:52:19
(UTC+00:00)

Gbstr 26 Del rocket - Pass Details

Date: 03 March 2021
Orbit: 492 x 1263 km, 51.8° (Epoch: 20 April)

Event Time Altitude Azimuth Distance (km) Brightness Sun altitude
Rises 18:08:32 0° 276° (W) 2,790 8.4 -14.4°
Reaches altitude 10° 18:10:41 10° 282° (WNW) 1,974 7.0 -14.8°
Maximum altitude 18:15:03 47° 357° (N) 933 4.0 -15.6°
Enters shadow 18:18:30 20° 63° (ENE) 1,742 4.9 -16.1°
